Home   Weather   Clovis   Past weeks

Flag for USA Past Weather in Clovis, New Mexico, USA — Yesterday and Last 2 Weeks

Now
88 °F

Passing clouds.


Feels Like: 88 °F
Forecast: 64 / 87 °F
Wind: 7 mph from Southeast

Location: Cannon Air Force Base / Clovis

Current Time: Aug 19, 2017 at 4:50:45 pm

Latest Report: Aug 19, 2017 at 3:58 pm


Visibility: 10 mi

Pressure: 29.88 "Hg (25.82 "Hg at 1300m altitude)

Humidity: 39%

Dew Point: 60 °F

Location of ClovisLocation

Past Weather in Clovis — Graph

°F

Clovis Temperature Yesterday

Maximum temperature yesterday: 88 °F (at 3:58 pm)
Minimum temperature yesterday: 65 °F (at 4:58 am)
Average temperature yesterday: 75 °F

High & Low Weather Summary for the Past Weeks

 TemperatureHumidityPressure
High91 °F (Aug 5, 3:58 pm)100% (Aug 5, 5:58 am)30.16 "Hg (Aug 5, 5:58 am)
Low61 °F (Aug 9, 7:54 am)30% (Aug 16, 2:58 pm)29.72 "Hg (Aug 15, 5:58 pm)
Average73 °F82%29.95 "Hg
* Reported Aug 4 2:58 pm — Aug 19 2:58 pm, Clovis. Weather by CustomWeather, © 2017

Note: Actual official high and low records may vary slightly from our data, if they occured in-between our weather recording intervals... More about our weather records

Advertising

Clovis Weather History for the Previous 24 Hours

Scroll right to see more
 ConditionsComfort  
Time TempWeatherWind HumidityBarometerVisibility
2:58 pm
Sat, Aug 19
86 °FPassing clouds.9 mph45%29.92 "Hg10 mi
1:58 pm87 °FScattered clouds.12 mph46%29.95 "Hg10 mi
12:58 pm85 °FScattered clouds.5 mph48%29.97 "Hg10 mi
11:58 am85 °FSunny.9 mph43%29.98 "Hg10 mi
10:58 am82 °FSunny.5 mph52%30.00 "Hg10 mi
9:58 am78 °FSunny.6 mph65%30.01 "Hg10 mi
8:58 am74 °FSunny.7 mph87%30.01 "Hg10 mi
7:58 am70 °FSunny.No wind100%30.02 "Hg10 mi
6:58 am65 °FSunny.No wind100%30.00 "Hg10 mi
5:58 am64 °FClear.No wind100%29.99 "Hg10 mi
4:58 am64 °FClear.5 mph100%29.98 "Hg10 mi
3:58 am67 °FClear.No wind100%29.97 "Hg10 mi
2:58 am67 °FClear.7 mph100%29.98 "Hg10 mi
1:58 am66 °FClear.6 mph100%29.98 "Hg10 mi
12:58 am67 °FClear.7 mph100%29.99 "Hg10 mi
11:58 pm
Fri, Aug 18
69 °FClear.8 mph100%30.00 "Hg10 mi
10:58 pm70 °FClear.6 mph100%30.00 "Hg10 mi
9:58 pm73 °FClear.6 mph93%29.98 "Hg10 mi
8:58 pm74 °FClear.5 mph89%29.97 "Hg10 mi
7:58 pm76 °FClear.7 mph84%29.95 "Hg10 mi
6:58 pm81 °FSunny.7 mph62%29.95 "Hg10 mi
5:58 pm83 °FSunny.7 mph61%29.94 "Hg10 mi
4:58 pm87 °FSunny.8 mph49%29.93 "Hg10 mi
Weather by CustomWeather, © 2017

See weather overviewHow to use our weather pages